Flag for Switzerland Weather past 2 weeks in Ilanz, Graubünden, Switzerland

Now
54 °F

Cool.


Feels Like: 50 °F
Forecast: 39 / 63 °F
Wind: 10 mph from Northeast

Location: Chur-Ems

Current Time: May 23, 2015 at 5:17:27 PM

Latest Report: May 23, 2015 at 4:00 PM


Visibility: N/A

Pressure: 30.03 "Hg

Humidity: 64%

Dew point: 42 °F

Location of IlanzLocation

Historic Weather in Ilanz — Graph

°F

Ilanz temperature yesterday

Maximum temperature yesterday: 55 °F (at 6:00 PM)
Minimum temperature yesterday: 47 °F (at 12:00 AM)
Average temperature yesterday: 51 °F

Past Weeks' High & Low Weather Summary

 TemperatureHumidityPressure
High85 °F (May 12, 3:00 PM)95% (May 8, 10:00 PM)30.41 "Hg (May 8, 10:00 PM)
Low41 °F (May 21, 4:00 AM)20% (May 11, 2:00 PM)29.68 "Hg (May 18, 6:00 PM)
Average57 °F69%30.08 "Hg
* Reported May 8 4:00 PM — May 23 4:00 PM, Ilanz, Weather by CustomWeather, © 2015

Note: Actual official high and low records may vary slightly from our data, if they occured in-between our weather recording intervals... More about our weather records

Advertising

Ilanz weather history for previous 24 hours

 ConditionsComfort  
Time TempWeatherWind HumidityBarometerVisibility
4:00 PM
Sat, May 23
54 °FCool.10 mph64%30.03 "HgN/A
3:00 PM54 °FCool.10 mph64%30.03 "HgN/A
2:00 PM54 °FFog.12 mph67%30.04 "Hg5 mi
1:00 PM53 °FCool.10 mph65%30.05 "HgN/A
12:40 PM53 °FCool.10 mph64%30.05 "HgN/A
12:00 PM53 °FCool.9 mph64%30.05 "HgN/A
11:00 AM53 °FCool.9 mph66%30.05 "HgN/A
10:00 AM52 °FCool.8 mph65%30.06 "HgN/A
9:00 AM50 °FCool.1 mph72%30.08 "HgN/A
8:00 AM48 °FFog.1 mph84%30.09 "Hg6 mi
7:00 AM47 °FCool.2 mph85%30.09 "HgN/A
6:00 AM47 °FCool.1 mph85%30.09 "HgN/A
4:00 AM47 °FCool.1 mph80%30.10 "HgN/A
3:00 AM47 °FCool.2 mph81%30.11 "HgN/A
2:00 AM48 °FOvercast.2 mph75%30.12 "Hg8 mi
1:00 AM50 °FCool.1 mph68%30.13 "HgN/A
12:00 AM51 °FCool.6 mph63%30.13 "HgN/A
10:00 PM
Fri, May 22
53 °FCool.7 mph55%30.13 "HgN/A
9:00 PM53 °FCool.10 mph56%30.13 "HgN/A
8:00 PM53 °FFog.14 mph55%30.12 "Hg4 mi
7:00 PM54 °FCool.15 mph60%30.11 "HgN/A
6:00 PM55 °FCool.15 mph59%30.11 "HgN/A
5:00 PM54 °FOvercast.13 mph59%30.12 "Hg4 mi
Weather by CustomWeather, © 2015

See weather overviewHow to use our weather pages